When you browse on this site, cookies collect data to enhance your experience and personalize the content and advertising you see.
Visit our Privacy Policy to learn more. By continuing to use the site, you agree to this use of cookies and data.
  • In Romania
  • List of Countries
  • For 7 days
  • Water Temperature
  • Satellite Maps
  • Weather Map
  • Weather Widgets
  • user-avatar
    Login

    Hourly Weather Booué

    Today, 17 June, Monday

    Time Temperature Precipitation Wind Pressure Humidity
    00:00 +25°C° 0.3 mm 1 mps 737 mmHg 96%
    01:00 +25°C° 0 mm 1 mps 737 mmHg 95%
    02:00 +23°C° 0 mm 0 mps 736 mmHg 96%
    03:00 +22°C° 0 mm 0 mps 736 mmHg 96%
    04:00 +22°C° 0 mm 0 mps 735 mmHg 97%
    05:00 +22°C° 0.2 mm 0 mps 736 mmHg 97%
    06:00 +22°C° 0.2 mm 0 mps 737 mmHg 96%
    07:00 +23°C° 0.2 mm 0 mps 737 mmHg 96%
    08:00 +26°C° 0.8 mm 1 mps 737 mmHg 90%
    09:00 +27°C° 0.8 mm 1 mps 737 mmHg 84%
    10:00 +29°C° 0.8 mm 1 mps 737 mmHg 79%
    11:00 +29°C° 2 mm 1 mps 737 mmHg 80%
    12:00 +29°C° 2 mm 1 mps 736 mmHg 81%
    13:00 +27°C° 2 mm 0 mps 735 mmHg 82%
    14:00 +29°C° 1.2 mm 1 mps 735 mmHg 79%
    15:00 +30°C° 1.2 mm 1 mps 734 mmHg 77%
    16:00 +30°C° 1.2 mm 1 mps 733 mmHg 74%
    17:00 +29°C° 0.5 mm 1 mps 734 mmHg 79%
    18:00 +25°C° 0.5 mm 0 mps 735 mmHg 85%
    19:00 +24°C° 0.5 mm 0 mps 735 mmHg 90%
    20:00 +24°C° 0.2 mm 0 mps 736 mmHg 91%
    21:00 +23°C° 0.2 mm 0 mps 736 mmHg 92%
    22:00 +23°C° 0.2 mm 0 mps 737 mmHg 92%
    23:00 +23°C° 0.3 mm 0 mps 736 mmHg 93%

    Tomorrow, 18 June, Tuesday

    Time Temperature Precipitation Wind Pressure Humidity
    00:00 +23°C° 0.3 mm 0 mps 736 mmHg 95%
    01:00 +22°C° 0.3 mm 0 mps 736 mmHg 96%
    02:00 +22°C° 0.5 mm 0 mps 736 mmHg 96%
    03:00 +22°C° 0.5 mm 0 mps 736 mmHg 97%
    04:00 +22°C° 0.5 mm 0 mps 736 mmHg 98%
    05:00 +22°C° 0.1 mm 0 mps 736 mmHg 97%
    06:00 +22°C° 0.1 mm 0 mps 736 mmHg 97%
    07:00 +24°C° 0.1 mm 1 mps 737 mmHg 97%
    08:00 +26°C° 0 mm 1 mps 737 mmHg 90%
    09:00 +28°C° 0 mm 1 mps 738 mmHg 83%
    10:00 +29°C° 0 mm 1 mps 738 mmHg 76%
    11:00 +31°C° 0.2 mm 1 mps 737 mmHg 71%
    12:00 +32°C° 0.2 mm 1 mps 736 mmHg 66%
    13:00 +33°C° 0.2 mm 1 mps 735 mmHg 61%
    14:00 +32°C° 1.5 mm 1 mps 735 mmHg 67%
    15:00 +31°C° 1.5 mm 1 mps 734 mmHg 73%
    16:00 +30°C° 1.5 mm 1 mps 734 mmHg 79%
    17:00 +27°C° 1 mm 0 mps 734 mmHg 83%
    18:00 +26°C° 1 mm 0 mps 734 mmHg 87%
    19:00 +24°C° 1 mm 0 mps 734 mmHg 91%
    20:00 +24°C° 0.4 mm 0 mps 735 mmHg 92%
    21:00 +24°C° 0.4 mm 0 mps 736 mmHg 92%
    22:00 +24°C° 0.4 mm 0 mps 736 mmHg 92%
    23:00 +23°C° 0.2 mm 0 mps 736 mmHg 93%

    Day after tomorrow, 19 June, Wednesday

    Time Temperature Precipitation Wind Pressure Humidity
    00:00 +25°C° 0.2 mm 1 mps 736 mmHg 95%
    01:00 +24°C° 0.2 mm 1 mps 736 mmHg 96%
    02:00 +24°C° 0 mm 1 mps 735 mmHg 96%
    03:00 +24°C° 0 mm 1 mps 735 mmHg 97%
    04:00 +24°C° 0 mm 1 mps 735 mmHg 98%
    05:00 +24°C° 0 mm 1 mps 736 mmHg 97%
    06:00 +24°C° 0 mm 1 mps 736 mmHg 96%
    07:00 +22°C° 0 mm 0 mps 736 mmHg 95%
    08:00 +23°C° 0 mm 0 mps 736 mmHg 90%
    09:00 +27°C° 0 mm 1 mps 737 mmHg 85%
    10:00 +28°C° 0 mm 1 mps 737 mmHg 80%
    11:00 +29°C° 0 mm 1 mps 736 mmHg 73%
    12:00 +31°C° 0 mm 1 mps 735 mmHg 67%
    13:00 +32°C° 0 mm 1 mps 735 mmHg 61%
    14:00 +32°C° 0 mm 1 mps 734 mmHg 62%
    15:00 +32°C° 0 mm 1 mps 734 mmHg 62%
    16:00 +32°C° 0 mm 1 mps 733 mmHg 63%
    17:00 +30°C° 0.4 mm 1 mps 734 mmHg 71%
    18:00 +28°C° 0.4 mm 1 mps 734 mmHg 79%
    19:00 +27°C° 0.4 mm 1 mps 735 mmHg 87%
    20:00 +26°C° 1.3 mm 1 mps 735 mmHg 89%
    21:00 +26°C° 1.3 mm 1 mps 736 mmHg 91%
    22:00 +25°C° 1.3 mm 1 mps 736 mmHg 92%
    23:00 +25°C° 0.7 mm 1 mps 736 mmHg 93%

    20 June, Thursday

    Time Temperature Precipitation Wind Pressure Humidity
    00:00 +24°C° 0.7 mm 1 mps 736 mmHg 94%
    01:00 +24°C° 0.7 mm 1 mps 736 mmHg 94%
    02:00 +24°C° 0.3 mm 1 mps 736 mmHg 95%
    03:00 +23°C° 0.3 mm 1 mps 736 mmHg 96%
    04:00 +23°C° 0.3 mm 1 mps 735 mmHg 96%
    05:00 +23°C° 0 mm 1 mps 736 mmHg 96%
    06:00 +23°C° 0 mm 1 mps 736 mmHg 96%
    07:00 +23°C° 0 mm 1 mps 737 mmHg 95%
    08:00 +24°C° 0 mm 1 mps 737 mmHg 90%
    09:00 +25°C° 0 mm 1 mps 737 mmHg 85%
    10:00 +26°C° 0 mm 1 mps 738 mmHg 80%
    11:00 +27°C° 0 mm 1 mps 737 mmHg 74%
    12:00 +29°C° 0 mm 1 mps 736 mmHg 69%
    13:00 +30°C° 0 mm 1 mps 736 mmHg 63%
    14:00 +30°C° 0 mm 1 mps 735 mmHg 62%
    15:00 +31°C° 0 mm 1 mps 735 mmHg 62%
    16:00 +31°C° 0 mm 1 mps 734 mmHg 61%
    17:00 +29°C° 0.1 mm 1 mps 734 mmHg 69%
    18:00 +28°C° 0.1 mm 1 mps 735 mmHg 76%
    19:00 +26°C° 0.1 mm 1 mps 735 mmHg 84%
    20:00 +26°C° 0 mm 1 mps 736 mmHg 85%
    21:00 +25°C° 0 mm 1 mps 736 mmHg 86%
    22:00 +25°C° 0 mm 1 mps 737 mmHg 88%
    23:00 +24°C° 0 mm 1 mps 737 mmHg 88%

    21 June, Friday

    Time Temperature Precipitation Wind Pressure Humidity
    00:00 +24°C° 0 mm 1 mps 736 mmHg 89%
    01:00 +24°C° 0 mm 1 mps 736 mmHg 90%
    02:00 +24°C° 0 mm 1 mps 736 mmHg 90%
    03:00 +24°C° 0 mm 1 mps 736 mmHg 91%
    04:00 +24°C° 0 mm 1 mps 736 mmHg 91%
    05:00 +24°C° 0 mm 1 mps 736 mmHg 91%
    06:00 +24°C° 0 mm 1 mps 737 mmHg 91%
    07:00 +24°C° 0 mm 1 mps 737 mmHg 91%
    08:00 +25°C° 0 mm 1 mps 737 mmHg 84%
    09:00 +27°C° 0 mm 1 mps 738 mmHg 77%
    10:00 +29°C° 0 mm 1 mps 738 mmHg 70%
    11:00 +30°C° 0 mm 1 mps 737 mmHg 66%
    12:00 +31°C° 0 mm 1 mps 737 mmHg 62%
    13:00 +32°C° 0 mm 1 mps 736 mmHg 58%
    14:00 +32°C° 0 mm 1 mps 735 mmHg 59%
    15:00 +31°C° 0 mm 1 mps 735 mmHg 61%
    16:00 +31°C° 0 mm 1 mps 734 mmHg 62%
    17:00 +30°C° 0.1 mm 1 mps 734 mmHg 70%
    18:00 +28°C° 0.1 mm 1 mps 735 mmHg 78%
    19:00 +26°C° 0.1 mm 1 mps 735 mmHg 86%
    20:00 +26°C° 0 mm 1 mps 735 mmHg 88%
    21:00 +25°C° 0 mm 1 mps 736 mmHg 90%
    22:00 +23°C° 0 mm 0 mps 736 mmHg 91%
    23:00 +25°C° 0 mm 1 mps 736 mmHg 92%

    22 June, Saturday

    Time Temperature Precipitation Wind Pressure Humidity
    00:00 +24°C° 0 mm 1 mps 736 mmHg 92%
    01:00 +24°C° 0 mm 1 mps 736 mmHg 92%
    02:00 +24°C° 0 mm 1 mps 736 mmHg 92%
    03:00 +24°C° 0 mm 1 mps 736 mmHg 92%
    04:00 +23°C° 0 mm 1 mps 736 mmHg 91%
    05:00 +23°C° 0 mm 1 mps 736 mmHg 91%
    06:00 +23°C° 0 mm 1 mps 736 mmHg 91%
    07:00 +23°C° 0 mm 1 mps 736 mmHg 90%
    08:00 +24°C° 0 mm 1 mps 737 mmHg 85%
    09:00 +25°C° 0 mm 1 mps 737 mmHg 80%
    10:00 +26°C° 0 mm 2 mps 737 mmHg 75%
    11:00 +27°C° 0 mm 2 mps 737 mmHg 72%
    12:00 +28°C° 0 mm 2 mps 736 mmHg 68%
    13:00 +29°C° 0 mm 2 mps 736 mmHg 64%
    14:00 +30°C° 0 mm 2 mps 735 mmHg 64%
    15:00 +30°C° 0 mm 2 mps 735 mmHg 63%
    16:00 +30°C° 0 mm 2 mps 734 mmHg 62%
    17:00 +29°C° 0 mm 2 mps 734 mmHg 69%
    18:00 +27°C° 0 mm 1 mps 735 mmHg 75%
    19:00 +26°C° 0 mm 1 mps 735 mmHg 82%
    20:00 +25°C° 0 mm 1 mps 735 mmHg 83%
    21:00 +25°C° 0 mm 1 mps 736 mmHg 84%
    22:00 +24°C° 0 mm 1 mps 736 mmHg 85%
    23:00 +24°C° 0 mm 1 mps 736 mmHg 87%
    Show more